FSMM1S LEPA-LEMD

Flight info

Callsign FSMM1S
Flight time 0h 56m
Altitude 20000
Route LEPA EPAMA VLC PRADO LEMD
Aircraft A320/M-V/N

Departure

Time 2026-05-04 23:03
Airport Palma de Mallorca Airport (LEPA)

Arrival

Time 2026-05-04 23:59
Airport Adolfo Suárez Madrid–Barajas Airport (LEMD)
Time Latitude Longitude Altitude Speed Heading
2026-05-04 22:33 39.54561 2.73381 36 ft 0 kts 340°
2026-05-04 22:46 39.54547 2.73385 34 ft 2 kts 359°
2026-05-04 22:46 39.54527 2.73381 36 ft 3 kts 27°
2026-05-04 22:47 39.54515 2.73370 32 ft 0 kts 56°
2026-05-04 22:54 39.54516 2.73372 36 ft 2 kts 56°
2026-05-04 22:54 39.54517 2.73374 36 ft 0 kts 56°
2026-05-04 22:54 39.54518 2.73375 36 ft 1 kts 56°
2026-05-04 22:55 39.54534 2.73407 36 ft 7 kts 58°
2026-05-04 22:55 39.54569 2.73482 36 ft 12 kts 59°
2026-05-04 22:55 39.54624 2.73594 35 ft 17 kts 58°
2026-05-04 22:55 39.54692 2.73739 34 ft 21 kts 59°
2026-05-04 22:56 39.54773 2.73914 33 ft 24 kts 58°
2026-05-04 22:56 39.54861 2.73984 33 ft 10 kts 340°
2026-05-04 22:56 39.54907 2.73954 33 ft 1 kts 331°
2026-05-04 22:56 39.54934 2.73934 32 ft 11 kts 327°
2026-05-04 22:57 39.55036 2.73851 33 ft 23 kts 328°
2026-05-04 22:57 39.55164 2.73754 33 ft 0 kts 334°
2026-05-04 22:57 39.55161 2.73757 33 ft 2 kts 355°
2026-05-04 22:57 39.55243 2.73791 31 ft 0 kts
2026-05-04 22:58 39.55252 2.73787 33 ft 4 kts 341°
2026-05-04 22:58 39.55299 2.73754 33 ft 11 kts 329°
2026-05-04 22:58 39.55377 2.73693 33 ft 15 kts 328°
2026-05-04 22:58 39.55482 2.73610 34 ft 20 kts 329°
2026-05-04 22:59 39.55610 2.73511 33 ft 23 kts 342°
2026-05-04 22:59 39.55689 2.73571 32 ft 12 kts 68°
2026-05-04 22:59 39.55740 2.73685 33 ft 17 kts 58°
2026-05-04 22:59 39.55809 2.73830 36 ft 21 kts 57°
2026-05-04 23:00 39.55894 2.74003 36 ft 24 kts 58°
2026-05-04 23:00 39.55990 2.74199 38 ft 27 kts 46°
2026-05-04 23:00 39.56121 2.74327 39 ft 20 kts 33°
2026-05-04 23:00 39.56232 2.74330 40 ft 12 kts 300°
2026-05-04 23:01 39.56227 2.74261 39 ft 5 kts 247°
2026-05-04 23:01 39.56226 2.74260 39 ft 0 kts 242°
2026-05-04 23:03 39.56210 2.74222 38 ft 29 kts 238°
2026-05-04 23:03 39.55916 2.73604 33 ft 127 kts 238°
2026-05-04 23:03 39.55353 2.72425 361 ft 171 kts 238°
2026-05-04 23:03 39.54669 2.71007 1116 ft 193 kts 235°
2026-05-04 23:04 39.53898 2.69592 2572 ft 189 kts 235°
2026-05-04 23:04 39.53133 2.68203 3819 ft 193 kts 236°
2026-05-04 23:04 39.52345 2.66718 4784 ft 207 kts 237°
2026-05-04 23:04 39.51534 2.65126 5790 ft 213 kts 238°
2026-05-04 23:05 39.50729 2.63514 6953 ft 213 kts 238°
2026-05-04 23:05 39.49929 2.61896 8104 ft 213 kts 238°
2026-05-04 23:05 39.49130 2.60276 9245 ft 214 kts 238°
2026-05-04 23:05 39.48324 2.58643 10337 ft 215 kts 238°
2026-05-04 23:06 39.47514 2.57005 11375 ft 216 kts 238°
2026-05-04 23:06 39.46701 2.55360 12406 ft 218 kts 238°
2026-05-04 23:06 39.45880 2.53700 13446 ft 219 kts 238°
2026-05-04 23:06 39.45083 2.51998 14322 ft 227 kts 246°
2026-05-04 23:07 39.44818 2.49925 14761 ft 254 kts 272°
2026-05-04 23:07 39.45319 2.47596 15135 ft 284 kts 285°
2026-05-04 23:07 39.46042 2.45200 15463 ft 307 kts 285°
2026-05-04 23:07 39.46725 2.42475 15760 ft 328 kts 281°
2026-05-04 23:08 39.47274 2.39568 16481 ft 334 kts 278°
2026-05-04 23:08 39.47730 2.36615 17431 ft 335 kts 276°
2026-05-04 23:08 39.48141 2.33627 18309 ft 339 kts 275°
2026-05-04 23:08 39.48537 2.30608 19065 ft 342 kts 275°
2026-05-04 23:09 39.48932 2.27552 19367 ft 344 kts 275°
2026-05-04 23:09 39.49328 2.24505 19480 ft 344 kts 275°
2026-05-04 23:09 39.49726 2.21449 19576 ft 344 kts 275°
2026-05-04 23:09 39.50125 2.18390 19681 ft 345 kts 275°
2026-05-04 23:10 39.50524 2.15328 19789 ft 345 kts 275°
2026-05-04 23:10 39.50924 2.12255 19891 ft 346 kts 275°
2026-05-04 23:10 39.51322 2.09184 19974 ft 347 kts 275°
2026-05-04 23:10 39.51722 2.06104 19976 ft 346 kts 275°
2026-05-04 23:11 39.52114 2.03069 19972 ft 346 kts 275°
2026-05-04 23:11 39.52512 1.99983 19974 ft 346 kts 275°
2026-05-04 23:11 39.52909 1.96900 19973 ft 346 kts 275°
2026-05-04 23:11 39.53304 1.93823 19972 ft 346 kts 275°
2026-05-04 23:12 39.53699 1.90745 19986 ft 346 kts 275°
2026-05-04 23:12 39.54091 1.87669 19963 ft 346 kts 275°
2026-05-04 23:12 39.54484 1.84588 19974 ft 346 kts 275°
2026-05-04 23:12 39.54875 1.81512 19965 ft 346 kts 275°
2026-05-04 23:13 39.55266 1.78435 19964 ft 346 kts 275°
2026-05-04 23:13 39.55656 1.75356 19959 ft 346 kts 275°
2026-05-04 23:13 39.56045 1.72279 19967 ft 346 kts 275°
2026-05-04 23:13 39.56429 1.69237 19964 ft 346 kts 275°
2026-05-04 23:14 39.56817 1.66156 19973 ft 346 kts 275°
2026-05-04 23:14 39.57204 1.63081 19961 ft 346 kts 275°
2026-05-04 23:14 39.57590 1.60001 19957 ft 346 kts 275°
2026-05-04 23:14 39.57975 1.56919 19962 ft 346 kts 275°
2026-05-04 23:15 39.58359 1.53842 19960 ft 346 kts 275°
2026-05-04 23:15 39.58742 1.50759 19962 ft 347 kts 275°
2026-05-04 23:15 39.59126 1.47669 19962 ft 347 kts 275°
2026-05-04 23:15 39.59508 1.44584 19961 ft 347 kts 275°
2026-05-04 23:16 39.59890 1.41497 19958 ft 347 kts 275°
2026-05-04 23:16 39.60168 1.38401 19958 ft 345 kts 270°
2026-05-04 23:16 39.60173 1.35309 19958 ft 342 kts 264°
2026-05-04 23:16 39.60011 1.32570 19958 ft 342 kts 263°
2026-05-04 23:17 39.59832 1.29491 19956 ft 342 kts 263°
2026-05-04 23:17 39.59659 1.26382 19959 ft 352 kts 263°
2026-05-04 23:17 39.59481 1.23187 19958 ft 356 kts 263°
2026-05-04 23:17 39.59303 1.19996 19961 ft 355 kts 263°
2026-05-04 23:18 39.59124 1.16805 19961 ft 355 kts 263°
2026-05-04 23:18 39.58943 1.13613 19969 ft 356 kts 264°
2026-05-04 23:18 39.58759 1.10401 19961 ft 357 kts 264°
2026-05-04 23:18 39.58575 1.07197 19960 ft 357 kts 264°
2026-05-04 23:19 39.58390 1.03991 19961 ft 357 kts 264°
2026-05-04 23:19 39.58204 1.00783 19959 ft 357 kts 264°
2026-05-04 23:19 39.58017 0.97577 19960 ft 357 kts 263°
2026-05-04 23:19 39.57830 0.94370 19961 ft 357 kts 263°
2026-05-04 23:20 39.57641 0.91163 19954 ft 357 kts 263°
2026-05-04 23:20 39.57451 0.87955 19951 ft 355 kts 263°
2026-05-04 23:20 39.57261 0.84761 19957 ft 356 kts 263°
2026-05-04 23:20 39.57070 0.81560 19956 ft 356 kts 263°
2026-05-04 23:21 39.56878 0.78366 19959 ft 356 kts 263°
2026-05-04 23:21 39.56688 0.75213 19969 ft 357 kts 263°
2026-05-04 23:21 39.56492 0.71995 19958 ft 358 kts 263°
2026-05-04 23:21 39.56297 0.68786 19958 ft 357 kts 263°
2026-05-04 23:22 39.56102 0.65579 19954 ft 357 kts 263°
2026-05-04 23:22 39.55904 0.62365 19955 ft 358 kts 263°
2026-05-04 23:22 39.55706 0.59154 19955 ft 358 kts 263°
2026-05-04 23:22 39.55508 0.55942 19955 ft 358 kts 263°
2026-05-04 23:23 39.55308 0.52729 19955 ft 357 kts 263°
2026-05-04 23:23 39.55107 0.49518 19955 ft 358 kts 263°
2026-05-04 23:23 39.54905 0.46305 19955 ft 358 kts 263°
2026-05-04 23:23 39.54703 0.43096 19955 ft 358 kts 263°
2026-05-04 23:24 39.54499 0.39886 19955 ft 357 kts 263°
2026-05-04 23:24 39.54295 0.36678 19959 ft 359 kts 263°
2026-05-04 23:24 39.54089 0.33453 19955 ft 359 kts 263°
2026-05-04 23:24 39.53882 0.30225 19955 ft 359 kts 263°
2026-05-04 23:25 39.53674 0.27006 19955 ft 358 kts 263°
2026-05-04 23:25 39.53466 0.23789 19955 ft 358 kts 263°
2026-05-04 23:25 39.53257 0.20567 19955 ft 358 kts 263°
2026-05-04 23:25 39.53046 0.17345 19955 ft 359 kts 263°
2026-05-04 23:26 39.52838 0.14170 19958 ft 359 kts 263°
2026-05-04 23:26 39.52623 0.10907 19958 ft 359 kts 263°
2026-05-04 23:26 39.52413 0.07731 19958 ft 359 kts 263°
2026-05-04 23:26 39.52199 0.04513 19958 ft 358 kts 263°
2026-05-04 23:27 39.51984 0.01299 19955 ft 359 kts 263°
2026-05-04 23:27 39.51769 -0.01922 19954 ft 359 kts 263°
2026-05-04 23:27 39.51552 -0.05144 19960 ft 359 kts 263°
2026-05-04 23:27 39.51334 -0.08366 19962 ft 360 kts 263°
2026-05-04 23:28 39.51106 -0.11705 19970 ft 384 kts 263°
2026-05-04 23:28 39.50865 -0.15206 19972 ft 404 kts 263°
2026-05-04 23:28 39.50613 -0.18871 19975 ft 410 kts 263°
2026-05-04 23:28 39.50362 -0.22549 19979 ft 410 kts 263°
2026-05-04 23:29 39.50110 -0.26223 19981 ft 410 kts 263°
2026-05-04 23:29 39.49856 -0.29898 19987 ft 410 kts 263°
2026-05-04 23:29 39.49601 -0.33575 19990 ft 410 kts 263°
2026-05-04 23:29 39.49345 -0.37234 19993 ft 410 kts 263°
2026-05-04 23:30 39.49086 -0.40921 19993 ft 409 kts 263°
2026-05-04 23:30 39.48956 -0.44611 19994 ft 411 kts 270°
2026-05-04 23:30 39.49334 -0.48296 19993 ft 415 kts 279°
2026-05-04 23:30 39.50227 -0.51821 19993 ft 420 kts 289°
2026-05-04 23:31 39.51600 -0.55180 19994 ft 424 kts 295°
2026-05-04 23:31 39.53076 -0.58484 19993 ft 423 kts 295°
2026-05-04 23:31 39.54547 -0.61791 19991 ft 423 kts 295°
2026-05-04 23:31 39.56012 -0.65099 19988 ft 423 kts 295°
2026-05-04 23:32 39.57480 -0.68420 19966 ft 424 kts 295°
2026-05-04 23:32 39.58945 -0.71745 19972 ft 425 kts 295°
2026-05-04 23:32 39.60412 -0.75074 19967 ft 425 kts 295°
2026-05-04 23:32 39.61874 -0.78396 19977 ft 423 kts 295°
2026-05-04 23:33 39.63333 -0.81713 19974 ft 423 kts 295°
2026-05-04 23:33 39.64790 -0.85032 19977 ft 423 kts 295°
2026-05-04 23:33 39.66248 -0.88354 19977 ft 423 kts 295°
2026-05-04 23:33 39.67702 -0.91673 19988 ft 423 kts 295°
2026-05-04 23:34 39.69158 -0.95000 19991 ft 424 kts 295°
2026-05-04 23:34 39.70612 -0.98328 19992 ft 423 kts 295°
2026-05-04 23:34 39.72011 -1.01530 19994 ft 424 kts 295°
2026-05-04 23:34 39.73464 -1.04859 19993 ft 423 kts 295°
2026-05-04 23:35 39.74914 -1.08184 19995 ft 423 kts 295°
2026-05-04 23:35 39.76364 -1.11514 19991 ft 423 kts 295°
2026-05-04 23:35 39.77812 -1.14844 19999 ft 422 kts 295°
2026-05-04 23:35 39.79258 -1.18170 19995 ft 422 kts 295°
2026-05-04 23:36 39.80214 -1.20372 20015 ft 423 kts 295°
2026-05-04 23:36 39.82133 -1.24799 19995 ft 424 kts 295°
2026-05-04 23:36 39.83578 -1.28137 19999 ft 424 kts 295°
2026-05-04 23:36 39.85023 -1.31481 19998 ft 424 kts 295°
2026-05-04 23:37 39.86001 -1.33743 19998 ft 424 kts 295°
2026-05-04 23:37 39.87444 -1.37083 19998 ft 424 kts 295°
2026-05-04 23:37 39.88889 -1.40431 20004 ft 423 kts 295°
2026-05-04 23:37 39.90329 -1.43773 20007 ft 423 kts 295°
2026-05-04 23:38 39.91770 -1.47122 20009 ft 423 kts 295°
2026-05-04 23:38 39.93208 -1.50466 20011 ft 423 kts 295°
2026-05-04 23:38 39.94644 -1.53809 20027 ft 423 kts 295°
2026-05-04 23:38 39.96058 -1.57105 20018 ft 423 kts 294°
2026-05-04 23:39 39.97491 -1.60450 20018 ft 423 kts 294°
2026-05-04 23:39 39.98925 -1.63800 20018 ft 423 kts 294°
2026-05-04 23:39 40.00358 -1.67151 20015 ft 423 kts 294°
2026-05-04 23:39 40.01790 -1.70504 20030 ft 423 kts 294°
2026-05-04 23:40 40.03223 -1.73866 20019 ft 424 kts 294°
2026-05-04 23:40 40.04658 -1.77231 20019 ft 424 kts 294°
2026-05-04 23:40 40.06041 -1.80480 20019 ft 423 kts 294°
2026-05-04 23:40 40.07478 -1.83858 20019 ft 424 kts 294°
2026-05-04 23:41 40.08907 -1.87223 20016 ft 424 kts 294°
2026-05-04 23:41 40.10310 -1.90528 20022 ft 423 kts 294°
2026-05-04 23:41 40.11735 -1.93890 20015 ft 422 kts 294°
2026-05-04 23:41 40.13137 -1.97201 20016 ft 422 kts 294°
2026-05-04 23:42 40.14560 -2.00562 20013 ft 422 kts 294°
2026-05-04 23:42 40.15982 -2.03924 20012 ft 423 kts 294°
2026-05-04 23:42 40.17406 -2.07291 20013 ft 423 kts 294°
2026-05-04 23:42 40.18828 -2.10655 20012 ft 422 kts 294°
2026-05-04 23:43 40.20250 -2.14022 20010 ft 422 kts 294°
2026-05-04 23:43 40.21670 -2.17389 20009 ft 422 kts 294°
2026-05-04 23:43 40.23089 -2.20757 20010 ft 423 kts 294°
2026-05-04 23:43 40.24473 -2.24168 20013 ft 423 kts 290°
2026-05-04 23:44 40.25487 -2.27749 20010 ft 417 kts 282°
2026-05-04 23:44 40.26060 -2.31453 20007 ft 412 kts 274°
2026-05-04 23:44 40.26198 -2.35187 20005 ft 410 kts 267°
2026-05-04 23:44 40.26166 -2.38927 20006 ft 410 kts 267°
2026-05-04 23:45 40.26147 -2.42633 19938 ft 403 kts 267°
2026-05-04 23:45 40.26132 -2.46201 19815 ft 388 kts 267°
2026-05-04 23:45 40.26117 -2.49659 19656 ft 371 kts 267°
2026-05-04 23:45 40.26100 -2.52958 19491 ft 354 kts 266°
2026-05-04 23:46 40.26082 -2.56055 19338 ft 337 kts 266°
2026-05-04 23:46 40.26064 -2.59044 19168 ft 318 kts 266°
2026-05-04 23:46 40.26048 -2.61857 19017 ft 299 kts 266°
2026-05-04 23:46 40.26041 -2.64501 18878 ft 281 kts 266°
2026-05-04 23:47 40.26038 -2.66978 18729 ft 263 kts 266°
2026-05-04 23:47 40.26035 -2.69288 18612 ft 245 kts 266°
2026-05-04 23:47 40.26031 -2.71440 18443 ft 230 kts 266°
2026-05-04 23:47 40.26023 -2.73510 17956 ft 227 kts 266°
2026-05-04 23:48 40.26013 -2.75574 17394 ft 226 kts 266°
2026-05-04 23:48 40.26003 -2.77592 16871 ft 225 kts 266°
2026-05-04 23:48 40.25994 -2.79642 16325 ft 225 kts 266°
2026-05-04 23:48 40.25985 -2.81692 15867 ft 225 kts 266°
2026-05-04 23:49 40.25976 -2.83734 15551 ft 223 kts 266°
2026-05-04 23:49 40.25968 -2.85763 15200 ft 223 kts 266°
2026-05-04 23:49 40.25959 -2.87782 14862 ft 220 kts 266°
2026-05-04 23:49 40.25950 -2.89782 14386 ft 220 kts 266°
2026-05-04 23:50 40.25940 -2.91786 13921 ft 219 kts 266°
2026-05-04 23:50 40.25930 -2.93777 13425 ft 218 kts 266°
2026-05-04 23:50 40.25919 -2.95765 12917 ft 218 kts 266°
2026-05-04 23:50 40.25909 -2.97656 12436 ft 218 kts 267°
2026-05-04 23:51 40.25898 -2.99641 11952 ft 217 kts 267°
2026-05-04 23:51 40.25886 -3.01622 11442 ft 218 kts 267°
2026-05-04 23:51 40.25874 -3.03603 10975 ft 218 kts 267°
2026-05-04 23:51 40.25862 -3.05607 10515 ft 217 kts 268°
2026-05-04 23:52 40.25848 -3.07569 10050 ft 219 kts 268°
2026-05-04 23:52 40.25835 -3.09563 9589 ft 219 kts 268°
2026-05-04 23:52 40.25822 -3.11543 9160 ft 216 kts 268°
2026-05-04 23:52 40.25821 -3.13505 8723 ft 215 kts 272°
2026-05-04 23:53 40.26035 -3.15442 8278 ft 215 kts 279°
2026-05-04 23:53 40.26310 -3.17388 7708 ft 223 kts 279°
2026-05-04 23:53 40.26584 -3.19425 7340 ft 227 kts 279°
2026-05-04 23:53 40.26877 -3.21657 7265 ft 277 kts 279°
2026-05-04 23:54 40.27232 -3.24378 7172 ft 327 kts 279°
2026-05-04 23:54 40.27637 -3.27485 7078 ft 358 kts 279°
2026-05-04 23:54 40.28176 -3.30609 7003 ft 341 kts 288°
2026-05-04 23:54 40.29086 -3.33314 6998 ft 308 kts 298°
2026-05-04 23:55 40.30225 -3.35527 6962 ft 281 kts 308°
2026-05-04 23:55 40.31489 -3.37320 6740 ft 252 kts 315°
2026-05-04 23:55 40.33894 -3.39938 6039 ft 208 kts 320°
2026-05-04 23:56 40.35059 -3.41124 5568 ft 213 kts 320°
2026-05-04 23:56 40.36216 -3.42297 5088 ft 209 kts 320°
2026-05-04 23:56 40.37346 -3.43443 4637 ft 208 kts 321°
2026-05-04 23:56 40.38479 -3.44592 4181 ft 203 kts 321°
2026-05-04 23:57 40.39571 -3.45701 3860 ft 201 kts 321°
2026-05-04 23:57 40.40683 -3.46830 3574 ft 200 kts 321°
2026-05-04 23:57 40.41776 -3.47941 3320 ft 198 kts 322°
2026-05-04 23:57 40.42869 -3.49052 3033 ft 205 kts 322°
2026-05-04 23:58 40.44011 -3.50212 2792 ft 204 kts 322°
2026-05-04 23:58 40.45130 -3.51347 2482 ft 200 kts 321°
2026-05-04 23:58 40.46240 -3.52481 2212 ft 205 kts 321°
2026-05-04 23:58 40.47334 -3.53589 1936 ft 186 kts 321°
2026-05-04 23:59 40.48152 -3.54420 1955 ft 105 kts 322°
2026-05-04 23:59 40.48586 -3.54881 1966 ft 74 kts 320°
2026-05-04 23:59 40.48836 -3.55319 1976 ft 55 kts 289°
2026-05-04 23:59 40.49069 -3.55641 1981 ft 43 kts 321°
2026-05-05 00:00 40.49273 -3.55852 1987 ft 12 kts 322°
2026-05-05 00:00 40.49287 -3.55866 1985 ft 7 kts 322°
2026-05-05 00:00 40.49378 -3.55956 1985 ft 13 kts 321°
2026-05-05 00:00 40.49414 -3.56080 1982 ft 18 kts 270°
2026-05-05 00:01 40.49426 -3.56235 1975 ft 2 kts 326°
2026-05-05 00:01 40.49469 -3.56248 1971 ft 10 kts 355°
2026-05-05 00:01 40.49549 -3.56294 1964 ft 16 kts 290°
2026-05-05 00:01 40.49557 -3.56418 1959 ft 0 kts 271°
2026-05-05 00:02 40.49569 -3.56439 1960 ft 6 kts 316°
2026-05-05 00:02 40.49634 -3.56462 1954 ft 14 kts 351°
2026-05-05 00:02 40.49755 -3.56475 1947 ft 21 kts 13°
2026-05-05 00:02 40.49916 -3.56463 1940 ft 25 kts 340°
2026-05-05 00:03 40.49941 -3.56493 1939 ft 2 kts 291°
2026-05-05 00:03 40.49939 -3.56523 1940 ft 6 kts 264°
2026-05-05 00:03 40.49930 -3.56600 1941 ft 11 kts 253°
2026-05-05 00:03 40.49927 -3.56618 1942 ft 2 kts 259°
2026-05-05 00:04 40.49922 -3.56636 1942 ft 1 kts 246°
2026-05-05 00:04 40.49920 -3.56641 1942 ft 0 kts 243°